{"data":{"norad_id":58083,"intl_designator":"2023-160J","name":"STARLINK-30551","alt_names":[],"object_type":"PAYLOAD","status":"ACTIVE","operator":null,"country":"US","launch_date":"2023-10-18","launch_site_code":"AFETR","launch_vehicle":null,"mission":null,"orbit_class":"UNKNOWN","rcs_meters":null,"size_class":null,"mass_kg":null,"dimensions":null,"purposes":["comms"],"wikipedia_slug":null,"has_3d_model":false,"image_url":null,"decayed_at":null,"tle_current":{"epoch":"2026-05-24T23:28:52.394880Z","epoch_age_seconds":91123,"freshness":"FRESH","line1":"1 58083U 23160J   26144.97838420  .00003445  00000+0  13455-3 0  9990","line2":"2 58083  43.0021  10.4114 0000937 264.1178  95.9567 15.27603881144578","mean_motion":15.27603881,"eccentricity":9.37e-5,"inclination_deg":43.0021,"raan_deg":10.4114,"arg_perigee_deg":264.1178,"mean_anomaly_deg":95.9567,"bstar":0.00013455,"rev_number":14457,"period_min":94.265275043511,"perigee_km":482.33470222912,"apogee_km":483.62047510304,"semimajor_km":6861.1145886661,"source":"CELESTRAK","updated_at":"2026-05-25T13:38:18.522498Z"}}}